Decimomannu, Italy

2:23 PM CEST on July 23, 2017 (GMT +0200)
Decimomannu Mil

Weather History for LIED - April, 2013

Change the Weather History Date:

Thursday, April 25, 2013

  Actual Average Record
Temperature  
Mean Temperature 63 °F -  
Max Temperature 69 °F 74 °F 78 °F (2007)
Min Temperature 57 °F 50 °F 42 °F (1997)
Degree Days  
Heating Degree Days 2    
Growing Degree Days 13 (Base 50)    
Moisture  
Dew Point 54 °F    
Average Humidity 72    
Maximum Humidity 94    
Minimum Humidity 38    
Precipitation  
Precipitation 0.01 in 0.04 in - ()
Sea Level Pressure  
Sea Level Pressure 30.07 in    
Wind  
Wind Speed 11 mph ()    
Max Wind Speed 24 mph    
Max Gust Speed 30 mph    
Visibility 6.4 miles    
Events Rain , Thunderstorm    
Averages and records for this station are not official NWS values.
T = Trace of Precipitation, MM = Missing Value Source: Averaged Metar Reports

Daily Weather History Graph

Daily Weather History Graph

Search for Another Location

Airport or City:

Trip Planner

Search our weather history database for the weather conditions in past years. The results will help you decide how hot, cold, wet, or windy it might be!

Date:

Astronomy

Apr. 25, 2013 Rise Set
Actual Time 6:33 AM CEST 8:11 PM CEST
Civil Twilight 6:04 AM CEST 8:40 PM CEST
Nautical Twilight 5:30 AM CEST 9:14 PM CEST
Astronomical Twilight 4:53 AM CEST 9:51 PM CEST
Moon 8:05 PM CEST (4/25) 6:04 AM CEST (4/25)
Length of Visible Light 14h 35m
Length of Day
13h 38m
Full, 100% of the Moon is Illuminated
Apr 25
Full
Apr 25
Full
May 2
Last Quarter
May 10
New
May 18
First Quarter

Hourly Weather History & Observations

Time (CEST) Temp. Dew Point Humidity Pressure Visibility Wind Dir Wind Speed Gust Speed Precip Events Conditions
12:55 AM 59.0 °F 57.2 °F 94% 30.06 in 5.0 mi ENE 23.0 mph - N/A Rain Light Rain
1:55 AM 57.2 °F 55.4 °F 94% 30.09 in 5.6 mi WNW 3.5 mph - N/A   Scattered Clouds
2:00 AM 58 °F 55 °F 85% 30.10 in 6 mi WNW 3.5 mph - - Rain Light Rain
2:55 AM 59.0 °F 55.4 °F 88% 30.09 in 5.6 mi SSE 6.9 mph - N/A   Scattered Clouds
4:55 AM 62.6 °F 55.4 °F 77% 30.06 in 5.6 mi ESE 11.5 mph - N/A   Scattered Clouds
5:00 AM 62 °F 55 °F 73% 30.09 in 6 mi ESE 11.5 mph - -   Mist
5:55 AM 62.6 °F 51.8 °F 68% 30.04 in 6.2 mi East 5.8 mph - N/A   Scattered Clouds
6:55 AM 59.0 °F 55.4 °F 88% 30.06 in 6.2 mi South 3.5 mph - N/A Rain Light Rain
7:55 AM 60.8 °F 53.6 °F 77% 30.06 in 6.2 mi East 12.7 mph - N/A   Scattered Clouds
8:00 AM 61 °F 53 °F 67% 30.08 in 7 mi East 12.7 mph - - Rain Light Rain
10:55 AM 68.0 °F 53.6 °F 60% 30.09 in 6.2 mi ESE 15.0 mph - N/A Rain Light Rain
11:00 AM 68 °F 54 °F 51% 30.09 in 7 mi ESE 15.0 mph - - Rain Light Rain
1:55 PM 68.0 °F 48.2 °F 49% 30.04 in 6.2 mi SSE 9.2 mph - N/A   Scattered Clouds
2:00 PM 68 °F 48 °F 38% 30.06 in 9 mi SSE 9.2 mph - - Rain Light Rain
2:55 PM 68.0 °F 46.4 °F 46% 30.06 in 6.2 mi SE 24.2 mph - N/A   Scattered Clouds
5:00 PM 67 °F 52 °F 49% 30.07 in 9 mi SE 17.3 mph - -   Overcast
6:55 PM 66.2 °F 55.4 °F 68% 30.06 in 6.2 mi ESE 9.2 mph - N/A   Partly Cloudy
7:55 PM 62.6 °F 57.2 °F 82% 30.04 in 6.2 mi East 6.9 mph - N/A   Scattered Clouds
8:00 PM 63 °F 57 °F 75% 30.05 in 7 mi East 6.9 mph - -   Overcast
8:55 PM 62.6 °F 53.6 °F 72% 30.04 in 6.2 mi SE 11.5 mph - N/A   Scattered Clouds
9:55 PM 64.4 °F 55.4 °F 73% 30.06 in 6.2 mi SE 18.4 mph 29.9 mph N/A Rain Light Rain
10:55 PM 60.8 °F 57.2 °F 88% 30.06 in 6.2 mi SSE 18.4 mph 29.9 mph N/A Rain Light Rain
11:00 PM 61 °F 57 °F 81% 30.08 in 6 mi SSE 18.4 mph - - Rain Light Rain
11:13 PM 60.8 °F 57.2 °F 88% 30.06 in 6.2 mi SE 18.4 mph - N/A Rain , Thunderstorm Light Thunderstorms and Rain